Regional Weather Roundup
Issued by NWS Kansas City/Pleasant Hill, MO

Home | Current Version | Previous Version | Graphics & Text | Print | Product List | Glossary Off
Versions: 1 2 3 4 5 6 7 8 9 10 11 12 13 14 15 16 17 18 19 20 21 22 23 24 25 26 27 28 29 30 31 32 33 34 35 36 37 38 39 40 41 42 43 44 45 46 47 48 49 50

000
ASUS43 KEAX 070710
RWREAX

WEATHER ROUNDUP FOR EASTERN KANSAS AND NORTHWEST MISSOURI
NATIONAL WEATHER SERVICE KANSAS CITY/PLEASANT HILL MO
100 AM CST SUN FEB 07 2016

KSZ040-057-103>105-MOZ028-029-037-043-070800-
...KANSAS CITY METROPOLITAN AREA...

CITY           SKY/WX    TMP DP  RH WIND       PRES   REMARKS
K.C. INTL      CLEAR     39  27  62 SW17      30.03F WCI  30
K.C. DOWNTOWN  CLEAR     42  27  55 SW13      30.05F
LEES SUMMIT    PTCLDY    39  27  62 SW16      30.07F WCI  30
OLATHE - IXD   CLEAR     39  27  62 S16       30.07F WCI  30
OLATHE - OJC   CLEAR     36  26  67 S8        30.07F WCI  30
LAWRENCE       CLEAR     40  26  57 SW14      30.06F WCI  32

$$

MOZ001>008-011>017-020>025-030>033-038>040-044>046-053-054-070800-
...NORTHERN AND CENTRAL MISSOURI...

CITY           SKY/WX    TMP DP  RH WIND       PRES   REMARKS
ST. JOSEPH     CLEAR     38  27  64 S12       30.01F WCI  30
MOSBY          CLOUDY    41  28  60 S7        30.06F
WARRENSBURG    MOCLDY    39  28  65 S12G17    30.09F WCI  32
WHITEMAN AFB   MOCLDY    39  28  66 SW14      30.10F WCI  30
CLINTON          N/A     39  30  70 S7        30.14F WCI  34
SEDALIA        CLOUDY    40  28  62 SW12      30.12F WCI  33
WARSAW         NOT AVBL
CHILLICOTHE      N/A     37  29  72 S8        30.04F WCI  31
KIRKSVILLE     PTCLDY    38  28  67 SW12      30.04F WCI  30

$$

MOZ041-047>049-056>058-063>065-088>090-097-070800-
...EASTERN AND SOUTHERN MISSOURI...

CITY           SKY/WX    TMP DP  RH WIND       PRES   REMARKS
ST. LOUIS INTL MOCLDY    43  23  45 SW10      30.16S
SPIRIT OF STL  PTCLDY    31  27  85 CALM      30.15S
COLUMBIA       PTCLDY    37  29  72 SW12      30.12S WCI  29
JEFFERSON CITY CLOUDY    41  30  65 S7        30.15S
ROLLA          CLOUDY    36  25  64 S9        30.14F WCI  29
OSAGE BEACH    PTCLDY    37  27  65 S6        30.15S WCI  33
SPRINGFIELD    PTCLDY    35  27  72 S6        30.16F WCI  30
BRANSON        PTCLDY    39  25  56 CALM      30.20F
JOPLIN         CLOUDY    38  27  64 S9        30.17F WCI  31
WEST PLAINS    CLEAR     38  16  40 SW7       30.20F WCI  33

$$

IAZ060-094-KSZ022-034>040-054-083-096-NEZ052-066-093-070800-
...KANSAS...SOUTHEAST NEBRASKA AND IOWA...

CITY           SKY/WX    TMP DP  RH WIND       PRES   REMARKS
TOPEKA         CLEAR     40  25  55 SW12G20   30.04F WCI  33
MANHATTAN      CLEAR     40  27  59 SW13      30.01F WCI  32
EMPORIA        PTCLDY    40  26  57 S18G26    30.06F WCI  31
CHANUTE        PTCLDY    36  28  73 S14       30.13F WCI  27
WICHITA        CLOUDY    36  26  67 S10       30.10F WCI  28
OMAHA          CLOUDY    39  28  64 VRB3      29.94S
LINCOLN        CLOUDY    36  27  69 W6        29.97R WCI  31
FALLS CITY     MOCLDY    37  27  67 SW10      29.96F WCI  30
LAMONI         CLOUDY    36  28  73 S17       29.94F WCI  26
DES MOINES     CLOUDY    37  27  67 SW12      29.92R WCI  29

$$




USA.gov is the U.S. government's official web portal to all federal, state and local government web resources and services.